This is the latest recevied weather packets stored in our database for station/object W4MJZ-1. If no packets are shown the sender has not sent any weather packets the latest 10 day(s).
| Time | Temp. | Humidity | Pressure | Rain* | Wind** | Luminosity | Snow |
|---|---|---|---|---|---|---|---|
| 1778001575 | 20.56° C | 59% | 1020 hPa | 0.25 mm | - | - | - |
| 1778001439 | 20.56° C | 59% | 1020 hPa | 0.25 mm | - | - | - |
| 1778001139 | 19.44° C | 58% | 1020 hPa | 0.25 mm | - | - | - |
| 1778000990 | 20° C | 58% | 1020 hPa | 0.25 mm | - | - | - |
| 1778000839 | 20° C | 58% | 1020 hPa | 0.25 mm | - | - | - |
| 1778000675 | 20° C | 59% | 1020 hPa | 0.25 mm | - | - | - |
| 1778000539 | 20° C | 59% | 1020 hPa | 0.25 mm | - | - | - |
| 1778000397 | 20° C | 58% | 1020 hPa | 0.25 mm | - | - | - |
| 1777999941 | 20° C | 63% | 1020.3 hPa | 0.25 mm | - | - | - |
| 1777999781 | 18.89° C | 62% | 1020 hPa | 0.25 mm | - | - | - |
| 1777999639 | 18.89° C | 62% | 1020 hPa | 0.25 mm | - | - | - |
| 1777999482 | 19.44° C | 64% | 1020 hPa | 0.25 mm | - | - | - |
| 1777999341 | 19.44° C | 64% | 1020 hPa | 0.25 mm | - | - | - |
| 1777999233 | 19.44° C | 64% | 1020.3 hPa | 0.25 mm | - | - | - |
| 1777999039 | 19.44° C | 64% | 1020.3 hPa | 0.25 mm | - | - | - |
| 1777998871 | 19.44° C | 61% | 1020.3 hPa | 0 mm | - | - | - |
| 1777998739 | 19.44° C | 61% | 1020.3 hPa | 0 mm | - | - | - |
| 1777998572 | 19.44° C | 62% | 1020.3 hPa | 0 mm | - | - | - |
| 1777998439 | 19.44° C | 62% | 1020.3 hPa | 0 mm | - | - | - |
| 1777998333 | 18.89° C | 62% | 1020.3 hPa | 0 mm | - | - | - |
| 1777998140 | 18.89° C | 62% | 1020.3 hPa | 0 mm | - | - | - |
| 1777998110 | 18.89° C | 62% | 1020 hPa | 0 mm | - | - | - |
| 1777997839 | 18.89° C | 62% | 1020 hPa | 0 mm | - | - | - |
| 1777997797 | 18.89° C | 66% | 1020 hPa | 0 mm | - | - | - |
| 1777997540 | 18.89° C | 66% | 1020 hPa | 0 mm | - | - | - |
* Rain latest hour (hover to see other rain measurements)
** Current wind speed in m/s (hover to see current wind gust speed)